Regional Weather Roundup
Issued by NWS Wilmington, NC

Home | Current Version | Previous Version | Text Only | Print | Product List | Glossary On
Versions: 1 2 3 4 5 6 7 8 9 10 11 12 13 14 15 16 17 18 19 20 21 22 23 24 25 26 27 28
000
ASUS42 KILM 302113
RWRILM
RWRILM
REGIONAL HOURLY WEATHER ROUNDUP
NATIONAL WEATHER SERVICE WILMINGTON NC
500 PM EDT SUN APR 30 2017

NOTE: "FAIR" INDICATES FEW OR NO CLOUDS BELOW 12,000 FEET WITH NO
SIGNIFICANT WEATHER AND/OR OBSTRUCTIONS TO VISIBILITY.

...............WFO WILMINGTON COUNTY WARNING AREA...............

......COASTAL NC AND SC COUNTIES......

CITY           SKY/WX    TMP DP  RH WIND       PRES   REMARKS
WILMINGTON     SUNNY     83  65  54 SW14      30.16F
N MYRTLE BEACH SUNNY     80  70  71 S15       30.16F
MYRTLE BEACH   MOSUNNY   81  70  69 SW16      30.17F

......INLAND NC AND SC COUNTIES.......

CITY           SKY/WX    TMP DP  RH WIND       PRES   REMARKS
LUMBERTON      MOSUNNY   84  69  60 S10       30.11F
ELIZABETHTOWN  SUNNY     85  65  52 S13       30.14F
WHITEVILLE     SUNNY     83  65  56 S13       30.14F
FLORENCE       MOSUNNY   86  64  47 S14       30.11F
DARLINGTON     MOSUNNY   85  65  51 S16G24    30.10F
KINGSTREE      FAIR      84  61  45 SE13      30.12F
HARTSVILLE     FAIR      81  68  65 S12G21    30.09F
BENNETTSVILLE  FAIR      82  73  74 S5        30.10F
CONWAY         FAIR      81  68  65 SE9       30.14F
GEORGETOWN     FAIR      79  64  61 S15G22    30.16F
MARION         FAIR      82  61  47 S17       30.13S

....................REST OF NORTH CAROLINA......................

.........EASTERN NC.........

CITY           SKY/WX    TMP DP  RH WIND       PRES   REMARKS
CAPE HATTERAS  MOSUNNY   79  70  74 SW12      30.18F HAZE
JACKSONVILLE   SUNNY     85  65  51 S16G25    30.15F
MOREHEAD CITY  SUNNY     78  73  84 SW15      30.18F
KENANSVILLE    SUNNY     84  64  51 SW8       30.14S
NEW BERN       SUNNY     84  67  56 SW13G23   30.15F
ELIZABETH CITY SUNNY     85  71  63 S13G20    30.11F HX  90

.........CENTRAL NC.........

CITY           SKY/WX    TMP DP  RH WIND       PRES   REMARKS
RALEIGH DURHAM CLOUDY    86  64  47 SW13      30.10F
ROCKY MOUNT    PTSUNNY   83  69  62 S7G23     30.11F
ROANOKE RAPIDS NOT AVBL
FAYETTEVILLE   MOSUNNY   87  68  52 S13       30.10F HX  90
HOFFMAN        LGT RAIN  73  70  88 W5G21     30.11F

.........WESTERN NC.........

CITY           SKY/WX    TMP DP  RH WIND       PRES   REMARKS
CHARLOTTE      PTSUNNY   83  66  56 S14       30.09F
GREENSBORO     LGT RAIN  73  68  84 S20       30.10F
HICKORY        NOT AVBL
BOONE          NOT AVBL
ASHEVILLE      NOT AVBL

.....................REST OF SOUTH CAROLINA.....................

.........EASTERN SC.........

CITY           SKY/WX    TMP DP  RH WIND       PRES   REMARKS
CHARLESTON     MOSUNNY   81  68  64 S18       30.14F
BEAUFORT MCAS  PTSUNNY   80  73  79 S8G20     30.13F
HILTON HEAD    MOSUNNY   81  73  78 SE12      30.14F

.........CENTRAL SC.........

CITY           SKY/WX    TMP DP  RH WIND       PRES   REMARKS
COLUMBIA       MOSUNNY   86  66  51 S16       30.06F
ORANGEBURG     SUNNY     84  64  50 SE20G25   30.08F
SUMTER SHAW    MOSUNNY   85  66  52 SE16G22   30.06F

.........WESTERN SC.........

CITY           SKY/WX    TMP DP  RH WIND       PRES   REMARKS
GREENVILLE     NOT AVBL
ROCK HILL      MOSUNNY   82  66  58 S7G18     30.09F
ANDERSON       MOSUNNY   84  64  50 S12       30.05F
CLEMSON        NOT AVBL
GREENWOOD      MOSUNNY   83  64  52 S8        30.07F


...................COASTAL AND OFFSHORE REPORTS..................

................LOCAL PIERS AND NC RESERVE................


STATION/POSITION TIME  SKY/WX   TEMP    WIND        PRES    VSBY
                                AIR SEA DIR/SP/G
                 (UTC)          (F)     (DEG/KT/KT) (MB)    (MI)
JOHNY MRCER PIER 2042            75 73  180/ 17/ 18 1020.5F
NC RESRV MASNBRO 1945            80     220/  8     1023.0
OCEAN CREST PIER NOT AVBL
SPRINGMAID  PIER 2042                               1021.0F


................COASTAL AND OFFSHORE BUOYS................


STATION/POSITION TIME  SKY/WX   TEMP    WIND        PRES    VSBY
                                AIR SEA DIR/SP/G
                 (UTC)          (F)     (DEG/KT/KT) (MB)    (MI)
DIMNDSHOAL 41025 2050            77 75  230/ 17/ 21 1022.0F
WVE H/P(F/S)=  3/ 5 SWL H/P/D(F/S/D)=  2/140/ 8

CAPE LOOKOUT     2100            76     210/ 10/ 14 1021.7F
ONSLOW BAY 41036 NOT AVBL
ONSLOW BAY 41064 2008            75     210/ 12/ 16 1022.5F
ONSLOW BAY 41159 2043               74                N/A
WVE H/P(F/S)=  4/ 5

MASNBO INL 41110 2059               73                N/A
WVE H/P(F/S)=  3/ 5

WILM HARBR 41108 2047               74                N/A
WVE H/P(F/S)=  4/ 6

27SE WRITB 41037 2008            76 74  200/ 12/ 17 1021.5F
FRYING PAN 41013 2050            76 75  180/ 12/ 14 1022.0F
WVE H/P(F/S)=  4/ 6 SWL H/P/D(F/S/D)=  2/160/ 6

SUNST NRSH 41024 2008            76 76  200/  8/ 12 1022.0F
CAPRS NRSH 41029 2008            79 76  190/ 14/ 17 1021.4F
EDISTO     41004 2050            77 76  180/ 16/ 19 1021.0F
WVE H/P(F/S)=  4/ 6 SWL H/P/D(F/S/D)=  2/130/11



..........OFFSHORE BUOYS BEYOND 100 NM OFFSHORE...........
.....IN A TRIANGLE---HAT TO BERMUDA TO BAHAMAS TO HAT.....


STATION/POSITION TIME  SKY/WX   TEMP    WIND        PRES    VSBY
                                AIR SEA DIR/SP/G
                 (UTC)          (F)     (DEG/KT/KT) (MB)    (MI)
150E HAT   41001 2100            75 74  230/ 12/ 14 1024.2
W BERMUDA  41048 2100            74 74   CALM  /  2 1025.5
ATLANTIC S 41049 2050            73 74   50/ 10/ 12 1024.5R
WVE H/P(F/S)=  4/ 7 SWL H/P/D(F/S/D)=  3/100/ 7

E BAHAMAS  41046 2100            77 77   80/ 16/ 19 1020.5
NE BAHAMAS 41047 2100            75 77  110/ 14/ 17 1023.0
120E CANVRL41010 2050            77 77  140/ 14/ 17 1021.0F
WVE H/P(F/S)=  6/ 7 SWL H/P/D(F/S/D)=  3/140/ 7


END




USA.gov is the U.S. government's official web portal to all federal, state and local government web resources and services.